Regional Weather Roundup
Issued by NWS Charleston, SC

Current Version | Previous Version | Text Only | Print | Product List | Glossary Off
Versions: 1 2 3 4 5 6 7 8 9 10 11 12 13 14 15 16 17 18 19 20 21 22 23 24 25 26 27 28 29 30 31 32 33 34 35 36 37 38 39 40 41 42 43 44 45 46 47 48 49 50
000 ASUS42 KCHS 040811 RWRCHS REGIONAL WEATHER ROUNDUP NATIONAL WEATHER SERVICE CHARLESTON SC 300 AM EST WED MAR 04 2015 NOTE: "FAIR" INDICATES FEW OR NO CLOUDS BELOW 12,000 FEET WITH NO SIGNIFICANT WEATHER AND/OR OBSTRUCTIONS TO VISIBILITY. NOT ALL STATIONS ARE QUALITY CONTROLLED BY THE NATIONAL WEATHER SERVICE. USE DATA WITH CAUTION...ESPECIALLY DEWPOINT OBSERVATIONS. SCZ027-030-031-034>040-042>050-040900- ...SOUTHEAST SOUTH CAROLINA... CITY SKY/WX TMP DP RH WIND PRES REMARKS N CHARLESTON FOG 55 55 100 S3 30.10S VSB 1/4 WATERFRONT PRK N/A 54 N/A N/A CALM N/A MOUNT PLEASANT FOG 54 54 100 CALM 30.10S VSB<1/4 PINOPOLIS NOT AVBL MONCKS CORNER FOG 50 48 93 CALM 30.10F VSB 1/4 SUMMERVILLE NOT AVBL BEAUFORT MCAS CLOUDY 62 61 96 S6 30.09F BEAUFORT ARPT CLOUDY 63 63 100 SW5 30.09F HILTON HEAD IS MOCLDY 64 64 100 S10 30.11F WALTERBORO FOG 54 54 100 CALM 30.10F VSB 1/4 ALLENDALE FOG 54 54 100 CALM 30.07F VSB<1/4 ...SOUTHERN MIDLANDS AND PEE DEE... CITY SKY/WX TMP DP RH WIND PRES REMARKS GEORGETOWN NOT AVBL KINGSTREE NOT AVBL ORANGEBURG FOG 48 46 93 S5 30.07F VSB 1/4 BARNWELL FOG 52 52 100 CALM 30.08F VSB<1/4 AIKEN DRZL/FOG 48 48 100 CALM 30.10F VSB<1/4 MANNING LGT RAIN N/A N/A N/A SE3 30.08F COLUMBIA DRZL/FOG 46 45 96 CALM 30.07F VSB 1/4 SUMTER FOG 44 43 98 W1 30.05F VSB 1/4 FLORENCE FOG 43 42 97 S5 30.08F VSB 1/4 MYRTLE BEACH CLOUDY 48 46 93 CALM 30.11F VSB 1/4 N MYRTLE BEACH FOG 48 47 96 CALM 30.08F VSB 1/4 $$ GAZ063-065-086>088-099>101-113>116-118-119-134>141-150-040900- ...SOUTHEAST GEORGIA... CITY SKY/WX TMP DP RH WIND PRES REMARKS SAVANNAH ARPT CLOUDY 65 62 90 S7 30.09F HUNTER AAF CLOUDY 64 64 100 S5 30.07F FORT STEWART CLOUDY 59 58 96 CALM 30.07S STATESBORO CLOUDY 61 61 100 CALM 30.08S FOG SYLVANIA FOG 57 57 100 CALM 30.09S VSB 1/2 CLAXTON FOG 61 61 100 CALM 30.08F VSB 1/2 ...CSRA...CENTRAL AND FAR SOUTHEAST GEORGIA... CITY SKY/WX TMP DP RH WIND PRES REMARKS THOMSON CLOUDY 52 52 100 CALM 30.12F VSB 1/4 AUGUSTA-BUSH FOG 51 51 100 CALM 30.08F VSB 1/4 AUGUSTA-DANIEL FOG 53 51 93 CALM 30.08F VSB 1/4 SWAINSBORO NOT AVBL VIDALIA CLOUDY 64 64 100 S3 30.09S EASTMAN CLOUDY 59 59 100 CALM 30.10S FOG HAZLEHURST PTSUNNY 67 66 97 S3 30.07S ALMA PTCLDY 62 61 96 S3 30.08F FOG WAYCROSS FOG 64 64 99 CALM 30.09S VSB 3/4 JESUP PTSUNNY 68 64 88 CALM 30.09F BAXLEY FAIR 64 63 94 CALM 30.07F FOG BRUNSWICK CLOUDY 61 59 94 CALM 30.11S VSB 1/4 SAINT SIMONS CLEAR 58 58 100 SE5 30.10F $$ SCZ027-028-034-036>038-045-046-048>050-GAZ119-141-040900- ...LAKE AND SUPPLEMENTAL COASTAL OBSERVATIONS... STATION/POSITION TIME TEMP WIND PRES WAVE SWELL AIR SEA DIR/SP/G HT/PER HT/PER/DIR (UTC) (F) (DEG/KT/KT) (MB) (FT/S) (FT/S/D) UPR LAKE MARION NOT AVBL WINYAH BAY 0645 48 CALM 1019.0 LAKE MURRAY 0700 45 150/ 1/ 2 1017.9F ACE BASIN NERRS NOT AVBL FORT PULASKI 0700 59 50 200/ 6/ 8 1019.9F SAPELO ISLAND 0700 61 200/ 4 1020.0S $$ ANZ835-935-AMZ111-154-330-350-352-354-370-450-454-472-040900- ...C-MAN AND BUOY OBSERVATIONS... STATION/POSITION TIME TEMP WIND PRES WAVE SWELL AIR SEA DIR/SP/G HT/PER HT/PER/DIR (UTC) (F) (DEG/KT/KT) (MB) (FT/S) (FT/S/D) BUOY 41004 0750 70 68 190/ 14/ 16 1018.4F 4/ 8 3/ 8 BUOY 41008 0750 56 53 210/ 8/ 10 1019.1F 3/ 9 3/100/ 9 FOLLY BEACH CMAN 0800 50 310/ 3/ 4 1019.8F CAPERS NEARSHORE NOT AVBL FRIPP NEARSHORE 0700 52 270/ 4/ 6 1019.1F STATION/POSITION TIME TEMP WIND PRES WAVE SWELL AIR SEA DIR/SP/G HT/PER HT/PER/DIR (UTC) (F) (DEG/KT/KT) (MB) (FT/S) (FT/S/D) 5E ST. MARYS GA 0721 54 N/A 2/ 9 FRYING PAN BUOY 0750 61 61 280/ 4/ 4 1019.4F 5/ 7 5/120/ 7 BUOY 41025 NOT AVBL CAPE LOOKOUT NC 0800 59 230/ 10/ 13 1018.0F BUOY 41002 0750 70 72 200/ 17/ 21 1022.3F 6/ 9 3/110/ 9 BUOY 41010 0720 73 75 160/ 12/ 14 1021.4F ST AUGUSTINE FL 0800 60 180/ 6/ 6 1020.0F $$

USA.gov is the U.S. government's official web portal to all federal, state and local government web resources and services.